User: anonymous   Login
Location: Unspecified
(0.0000°N, 0.0000°E)
Time: 22:40:30
(UTC+00:00)
Language:

STARLINK-31449 - Orbit

View from above orbital plane
View from above orbital plane
View from above satellite
View from above satellite

Ground track
Ground track

The orbit is defined by the following mean orbital elements,

1 58966U          26145.14652207 +.00000000 +00000-0 +81415-5 0 00006
2 58966  53.1614 301.2349 0001155 104.3692 255.7437 15.30193550    00
Epoch (UTC): 25 May 2026 03:30:59
Eccentricity: 0.0001155
inclination: 53.1614°
perigee height: 474 km
apogee height: 476 km
right ascension of ascending node: 301.2349°
argument of perigee: 104.3692°
revolutions per day: 15.30193550
mean anomaly at epoch: 255.7437°

The dashed part of the orbit path shows where the satellite is in the earth's shadow,  

DLR